User: anonymous   Login
Location: Newark
(45.2500°N, 7.5833°E)
Time: 12:27:59
(UTC+00:00)
Language:

TIGRISAT - Orbit

View from above orbital plane
View from above orbital plane
View from above satellite
View from above satellite

Ground track
Ground track

The orbit data is extracted from the following two-line orbital elements,

1 40043U 14033AK  20049.16018672  .00000112  00000-0  23816-4 0  9996
2 40043  97.7257 271.1072 0060656  28.6504 331.8015 14.74341918304626
Epoch (UTC): 18 February 2020 03:50:40
Eccentricity: 0.0060656
inclination: 97.7257°
perigee height: 604 km
apogee height: 690 km
right ascension of ascending node: 271.1072°
argument of perigee: 28.6504°
revolutions per day: 14.74341918
mean anomaly at epoch: 331.8015°
orbit number at epoch: 30462

The dashed part of the orbit path shows where the satellite is in the earth's shadow,  

DLR